User: anonymous   Login
Location: Golden Pond Observatory
(36.7667°N, 88.0167°W)
Time: 04:40:30
(UTC-05:00)
Language:

ISS - Orbit

View from above orbital plane
View from above orbital plane
View from above satellite
View from above satellite

Ground track
Ground track

The orbit data is extracted from the following two-line orbital elements,

1 25544U 98067A   19084.98557376  .00016717  00000-0  10270-3 0  9054
2 25544  51.6378  54.8379 0002200 119.8275 240.3095 15.52395788  2328
Epoch (UTC): 25 March 2019 23:39:13
Eccentricity: 0.0002200
inclination: 51.6378°
perigee height: 408 km
apogee height: 411 km
right ascension of ascending node: 54.8379°
argument of perigee: 119.8275°
revolutions per day: 15.52395788
mean anomaly at epoch: 240.3095°
orbit number at epoch: 232

The dashed part of the orbit path shows where the satellite is in the earth's shadow,  

DLR